| time (UTC) | temp C | wind direction | speed KPH | gust KPH | rain 1hr cm | rain 24hr cm | rain mn cm | humidity % | barometer mb |
| 20260903080016 | 23 | 0.0 | 0.0 | 0.00 | 0.00 | 0.00 | 93 | 1016.6 | |
| 20260903074516 | 23 | 0.0 | 0.0 | 0.00 | 0.00 | 0.00 | 93 | 1016.9 | |
| 20260903073016 | 23 | 0.0 | 0.0 | 0.00 | 0.00 | 0.00 | 93 | 1016.9 | |
| 20260903071516 | 23 | 0.0 | 0.0 | 0.00 | 0.00 | 0.00 | 93 | 1016.9 | |
| 20260903070016 | 23 | 0.0 | 0.0 | 0.00 | 0.00 | 0.00 | 93 | 1016.9 | |
| 20260903064516 | 24 | 0.0 | 0.0 | 0.00 | 0.00 | 0.00 | 93 | 1017.0 | |
| 20260903063016 | 24 | 0.0 | 0.0 | 0.00 | 0.00 | 0.00 | 93 | 1017.2 | |
| 20260903061516 | 24 | 0.0 | 0.0 | 0.00 | 0.00 | 0.00 | 93 | 1017.2 | |
| 20260903060016 | 24 | 0.0 | 0.0 | 0.00 | 0.00 | 0.00 | 93 | 1017.1 | |
| 20260903054516 | 24 | 0.0 | 0.0 | 0.00 | 0.00 | 0.00 | 93 | 1017.2 | |
| 20260903053016 | 24 | 0.0 | 0.0 | 0.00 | 0.00 | 0.00 | 94 | 1017.3 | |
| 20260903051516 | 25 | 0.0 | 0.0 | 0.00 | 0.00 | 0.00 | 94 | 1017.6 | |
| 20260903050016 | 25 | 0.0 | 0.0 | 0.00 | 0.00 | 0.00 | 94 | 1017.9 | |
| 20260903044516 | 24 | 0.0 | 0.0 | 0.00 | 0.00 | 0.00 | 93 | 1018.1 | |
| 20260903043016 | 24 | 0.0 | 0.0 | 0.00 | 0.00 | 0.00 | 93 | 1017.9 | |
| 20260903041516 | 24 | 0.0 | 0.0 | 0.00 | 0.00 | 0.00 | 92 | 1017.5 | |
| 20260903040035 | 25 | 0.0 | 0.0 | 0.00 | 0.00 | 0.00 | 91 | 1017.2 | |
| 20260903034516 | 25 | 0.0 | 0.0 | 0.00 | 0.00 | 0.00 | 90 | 1017.0 | |
| 20260903033016 | 25 | 0.0 | 0.0 | 0.00 | 0.00 | 0.00 | 90 | 1017.0 | |
| 20260903031516 | 25 | 0.0 | 0.0 | 0.00 | 0.00 | 0.00 | 90 | 1016.7 | |
| 20260903030016 | 25 | 0.0 | 0.0 | 0.00 | 0.00 | 0.00 | 89 | 1016.7 | |
| 20260903024516 | 25 | 0.0 | 0.0 | 0.00 | 0.00 | 0.00 | 89 | 1017.0 | |
| 20260903023036 | 25 | 0.0 | 0.0 | 0.00 | 0.00 | 0.00 | 88 | 1017.1 | |
| 20260903021516 | 26 | 0.0 | 0.0 | 0.00 | 0.00 | 0.00 | 88 | 1017.2 | |
| 20260903020016 | 26 | 0.0 | 0.0 | 0.00 | 0.00 | 0.00 | 88 | 1017.6 | |
| 20260903014516 | 26 | 0.0 | 0.0 | 0.00 | 0.00 | 0.00 | 87 | 1017.7 | |
| 20260903013016 | 26 | 0.0 | 0.0 | 0.00 | 0.00 | 0.00 | 87 | 1017.4 | |
| 20260903011516 | 26 | 0.0 | 0.0 | 0.00 | 0.00 | 0.00 | 85 | 1017.4 | |
| 20260903010016 | 27 | 0.0 | 0.0 | 0.00 | 0.00 | 0.00 | 84 | 1017.5 | |
| 20260903004516 | 27 | 0.0 | 0.0 | 0.00 | 0.00 | 0.00 | 84 | 1017.6 | |
| 20260903003016 | 27 | 0.0 | 0.0 | 0.00 | 0.00 | 0.00 | 83 | 1017.2 | |
| 20260903001536 | 27 | 0.0 | 0.0 | 0.00 | 0.00 | 0.00 | 82 | 1017.1 | |
| 20260903000016 | 28 | 0.0 | 0.0 | 0.00 | 0.00 | 0.00 | 81 | 1017.1 | |
| 20260902234516 | 28 | 0.0 | 3.2 | 0.00 | 0.00 | 0.00 | 81 | 1017.0 | |
| 20260902233016 | 28 | 0.0 | 3.2 | 0.00 | 0.00 | 0.00 | 81 | 1017.0 | |
| 20260902231516 | 28 | 180 | 1.6 | 3.2 | 0.00 | 0.00 | 0.00 | 80 | 1017.5 |
| 20260902230016 | 28 | 180 | 1.6 | 4.8 | 0.00 | 0.00 | 0.00 | 80 | 1017.6 |
| 20260902224516 | 28 | 0.0 | 4.8 | 0.00 | 0.00 | 0.00 | 80 | 1017.4 | |
| 20260902223036 | 29 | 203 | 1.6 | 4.8 | 0.00 | 0.00 | 0.00 | 79 | 1017.8 |
| 20260902221516 | 29 | 0.0 | 4.8 | 0.00 | 0.00 | 0.00 | 77 | 1018.0 | |
| 20260902220016 | 30 | 0.0 | 3.2 | 0.00 | 0.00 | 0.00 | 75 | 1017.6 | |
| 20260902214536 | 30 | 203 | 1.6 | 6.4 | 0.00 | 0.00 | 0.00 | 73 | 1017.1 |
| 20260902213016 | 30 | 180 | 1.6 | 6.4 | 0.00 | 0.00 | 0.00 | 74 | 1017.5 |
| 20260902211516 | 30 | 180 | 1.6 | 9.7 | 0.00 | 0.00 | 0.00 | 71 | 1017.7 |
| 20260902210015 | 31 | 180 | 1.6 | 6.4 | 0.00 | 0.00 | 0.00 | 70 | 1017.6 |
| 20260902204515 | 31 | 135 | 1.6 | 6.4 | 0.00 | 0.00 | 0.00 | 71 | 1017.5 |
| 20260902203015 | 32 | 113 | 3.2 | 9.7 | 0.00 | 0.00 | 0.00 | 69 | 1018.1 |
| 20260902201515 | 32 | 0.0 | 4.8 | 0.00 | 0.00 | 0.00 | 66 | 1017.8 | |
| 20260902200016 | 32 | 0.0 | 4.8 | 0.00 | 0.00 | 0.00 | 64 | 1017.9 | |
| 20260902194535 | 32 | 0.0 | 6.4 | 0.00 | 0.00 | 0.00 | 64 | 1017.5 | |
| 20260902193015 | 33 | 203 | 1.6 | 6.4 | 0.00 | 0.00 | 0.00 | 64 | 1017.2 |
| 20260902191515 | 33 | 23 | 1.6 | 4.8 | 0.00 | 0.00 | 0.00 | 63 | 1017.3 |
| 20260902190016 | 33 | 0.0 | 3.2 | 0.00 | 0.00 | 0.00 | 64 | 1017.5 | |
| 20260902184515 | 33 | 180 | 1.6 | 4.8 | 0.00 | 0.00 | 0.00 | 62 | 1017.5 |
| 20260902183015 | 33 | 180 | 1.6 | 8.0 | 0.00 | 0.00 | 0.00 | 60 | 1017.7 |
| 20260902181555 | 33 | 270 | 1.6 | 6.4 | 0.00 | 0.00 | 0.00 | 62 | 1017.7 |
| 20260902180015 | 33 | 135 | 1.6 | 9.7 | 0.00 | 0.00 | 0.00 | 62 | 1017.9 |
| 20260902174518 | 33 | 270 | 1.6 | 9.7 | 0.00 | 0.00 | 0.00 | 61 | 1018.1 |
| 20260902173015 | 33 | 293 | 1.6 | 6.4 | 0.00 | 0.00 | 0.00 | 63 | 1018.0 |
| 20260902171515 | 33 | 270 | 1.6 | 4.8 | 0.00 | 0.00 | 0.00 | 62 | 1018.0 |
| 20260902170017 | 33 | 158 | 1.6 | 4.8 | 0.00 | 0.00 | 0.00 | 62 | 1018.0 |
| 20260902164517 | 33 | 158 | 1.6 | 4.8 | 0.00 | 0.00 | 0.00 | 60 | 1018.2 |
| 20260902163017 | 33 | 23 | 1.6 | 3.2 | 0.00 | 0.00 | 0.00 | 61 | 1018.1 |
| 20260902161517 | 33 | 293 | 1.6 | 4.8 | 0.00 | 0.00 | 0.00 | 59 | 1018.2 |
| 20260902160037 | 33 | 158 | 1.6 | 3.2 | 0.00 | 0.00 | 0.00 | 63 | 1018.3 |
| 20260902154517 | 33 | 158 | 1.6 | 4.8 | 0.00 | 0.00 | 0.00 | 64 | 1018.5 |
| 20260902153017 | 32 | 315 | 1.6 | 4.8 | 0.00 | 0.00 | 0.00 | 65 | 1018.4 |
| 20260902151517 | 31 | 158 | 1.6 | 6.4 | 0.00 | 0.00 | 0.00 | 68 | 1018.5 |
| 20260902150017 | 30 | 0.0 | 3.2 | 0.00 | 0.00 | 0.00 | 72 | 1018.5 | |
| 20260902144517 | 29 | 0.0 | 3.2 | 0.00 | 0.00 | 0.00 | 76 | 1018.6 | |
| 20260902143057 | 28 | 0.0 | 3.2 | 0.00 | 0.00 | 0.00 | 78 | 1018.6 | |
| 20260902141517 | 27 | 180 | 1.6 | 6.4 | 0.00 | 0.00 | 0.00 | 79 | 1018.4 |
| 20260902140017 | 27 | 315 | 1.6 | 4.8 | 0.00 | 0.00 | 0.00 | 82 | 1018.3 |
| 20260902134537 | 26 | 0.0 | 3.2 | 0.00 | 0.00 | 0.00 | 85 | 1018.2 | |
| 20260902133017 | 25 | 0.0 | 1.6 | 0.00 | 0.00 | 0.00 | 87 | 1018.2 | |
| 20260902131517 | 25 | 0.0 | 1.6 | 0.00 | 0.00 | 0.00 | 88 | 1018.1 | |
| 20260902130017 | 24 | 0.0 | 3.2 | 0.00 | 0.00 | 0.00 | 89 | 1018.0 | |
| 20260902124517 | 24 | 0.0 | 4.8 | 0.00 | 0.00 | 0.00 | 91 | 1017.9 | |
| 20260902123016 | 23 | 0.0 | 3.2 | 0.00 | 0.00 | 0.00 | 92 | 1017.8 | |
| 20260902121517 | 23 | 0.0 | 3.2 | 0.00 | 0.00 | 0.00 | 92 | 1017.9 | |
| 20260902120016 | 23 | 0.0 | 1.6 | 0.00 | 0.00 | 0.00 | 92 | 1018.0 | |
| 20260902114516 | 23 | 0.0 | 0.0 | 0.00 | 0.00 | 0.00 | 91 | 1017.9 | |
| 20260902113016 | 23 | 0.0 | 0.0 | 0.00 | 0.00 | 0.00 | 91 | 1017.9 | |
| 20260902111516 | 23 | 0.0 | 0.0 | 0.00 | 0.00 | 0.00 | 91 | 1017.9 | |
| 20260902110016 | 23 | 0.0 | 0.0 | 0.00 | 0.00 | 0.00 | 91 | 1017.8 | |
| 20260902104536 | 23 | 0.0 | 0.0 | 0.00 | 0.00 | 0.00 | 92 | 1017.6 | |
| 20260902103016 | 23 | 0.0 | 0.0 | 0.00 | 0.00 | 0.00 | 92 | 1017.6 | |
| 20260902101516 | 23 | 0.0 | 1.6 | 0.00 | 0.00 | 0.00 | 92 | 1017.5 | |
| 20260902100016 | 23 | 0.0 | 1.6 | 0.00 | 0.00 | 0.00 | 93 | 1017.3 | |
| 20260902094516 | 23 | 0.0 | 0.0 | 0.00 | 0.00 | 0.00 | 93 | 1017.3 | |
| 20260902093016 | 23 | 0.0 | 0.0 | 0.00 | 0.00 | 0.00 | 93 | 1017.1 | |
| 20260902091516 | 23 | 0.0 | 1.6 | 0.00 | 0.00 | 0.00 | 93 | 1017.1 | |
| 20260902090036 | 23 | 0.0 | 0.0 | 0.00 | 0.00 | 0.00 | 93 | 1017.2 | |
| 20260902084516 | 23 | 0.0 | 1.6 | 0.00 | 0.00 | 0.00 | 92 | 1017.3 | |
| 20260902083016 | 23 | 0.0 | 1.6 | 0.00 | 0.00 | 0.00 | 92 | 1017.3 | |
| 20260902081536 | 23 | 0.0 | 1.6 | 0.00 | 0.00 | 0.00 | 92 | 1017.2 |